Weather in Lgovo

Russia / Kostroma Oblast     57°43′45″N   43°16′57″E
temp.,
°C
wind,
m/s
gust,
m/s
humid.,
%
clouds,
%
prec.,
mm/h
press.,
hPa
HPBL,
m
17 april, sat
sat1700:00+4ene311845 0.0 1029310
03:00+2ene310865 0.0 1029246
06:00+1ene311825 0.0 1030255
09:00+7ene49615 0.0 1030531
12:00+11ene46475 0.0 10291074
15:00+12ene45460 0.0 10281209
18:00+9ne37620 0.0 1027319
21:00+5ene28832 0.0 1027144
18 april, sun
sun1800:00+3ne25852 0.0 102792
03:00+2ne26904 0.0 1027116
06:00+2ne298827 0.0 1027229
09:00+7ene476396 0.0 1027500
12:00+10ne575484 0.0 10271246
15:00+8ne6769100 0.0 1028941
18:00+5ene5977100 0.0 1029863
21:00+4ene4107697 0.0 1030638
19 april, mon
mon1900:00+2ene41267100 0.0 1031578
03:00+1ene41171100 0.0 1032510
06:000ene41272100 0.0 1032564
09:00+4e595321 0.0 1033947
12:00+8e68395 0.0 10321720
15:00+8e57345 0.0 10321856
18:00+7e584245 0.0 10321455
21:00+3e4125795 0.0 1033471
20 april, tue
tue2000:00+1e4126391 0.0 1033456
03:000e4126577 0.0 1033419
06:000e4135853 0.0 1032509
09:00+6ese6104242 0.0 1031905
12:00+9ese6938100 0.0 10301557
15:00+11ese693320 0.0 10271648
18:00+9ese61236100 0.0 10261312
21:00+6ese61443100 0.0 1025982
21 april, wed
wed2100:00+5ese61546100 0.0 1022906
03:00+5ese71653100 0.1 1019898
06:00+3ese71876100 1.5 1016989
09:00+3se71789100 3.3 1015886
12:00+5se81784100 0.1 10141010
15:00+6se81985100 0.1 10121317
18:00+7sse81889100 0.3 10121429
21:00+8sse81689100 1.0 10131425